Location: Artiguedieu
(43.5000°N, 0.5454°E)
Time: 13:58:50
(UTC+00:00)

HuskySat-1 - Pass Details

Date: 25 September 2021
Orbit: 445 x 458 km, 51.6° (Epoch: 27 October)

Event Time Altitude Azimuth Distance (km) Brightness Sun altitude
Rises 19:05:27 0° 190° (S) 2,447 ? -14.5°
Reaches altitude 10° 19:08:19 10° 165° (SSE) 1,585 ? -15.0°
Enters shadow 19:08:21 10° 164° (SSE) 1,576 ? -15.0°
